Tracking 18843 objects as of 20-November-2017
HD Live streaming from Space Station
objects crossing your sky now

SAUDICOMSAT 1

Track SAUDICOMSAT 1 now!
10-day predictions
SAUDICOMSAT 1 is classified as:


NORAD ID: 28369
Int'l Code: 2004-025D
Perigee: 702.0 km
Apogee: 747.9 km
Inclination: 98.2 °
Period: 99.1 minutes
Semi major axis: 7095 km
RCS: 0.0481 m2 (small)
Launch date: June 29, 2004
Source: Saudi Arabia (SAUD)
Launch site: TYURATAM MISSILE AND SPACE COMPLEX (TTMTR)
aabbcc
Your satellite tracking list
Your tracking list is empty




NASA's NSSDC Master Catalog

Two Line Element Set (TLE):
1 28369U 04025D   17323.83483014  .00000070  00000-0  28203-4 0  9992
2 28369  98.2151 272.4451 0032313 264.7791  94.9717 14.52397277709380
Source of the keplerian elements: AFSPC